Preview of NWS' New Version of Forecast
This preview is not operational and should not be used for support decisions.

Regional Weather Roundup (RWR)

Issued by Gray - Portland, ME (GYX)

                            
951 
ASUS41 KGYX 250405
RWRGYX
WEATHER ROUNDUP FOR MAINE AND NEW HAMPSHIRE
NATIONAL WEATHER SERVICE GRAY ME
1200 AM EDT FRI MAY 25 2018

MEZ002-005-006-010-012-015-018-020-021-024-026-027-029-250500-
MAINE
  
CITY           SKY/WX    TMP DP  RH WIND       PRES   REMARKS
PORTLAND       FAIR      53  50  89 SW6       29.99F                  
SANFORD        FAIR      53  49  86 SW7       30.00F                  
BAR HARBOR     CLOUDY    50  45  83 SW8       30.00F                  
WISCASSET      FAIR      52  49  89 CALM      30.00F                  
FRYEBURG       FAIR      47  45  93 CALM      29.98F                  
LEWISTONAUBURN FAIR      44  43  96 CALM      29.98F                  
AUGUSTA        FAIR      49  46  90 VRB3      29.98F                  
WATERVILLE     FAIR      48  46  93 S5        29.94F                  
BANGOR         CLOUDY    52  45  77 S8        29.96F                  
GREENVILLE       N/A     52  44  74 SE7       29.88F                  
MILLINOCKET    FAIR      52  45  77 VRB3      29.90F                  
HOULTON        LGT RAIN  50  47  89 S7        29.87                   
PRESQUE ISLE   LGT RAIN  48  44  86 S5        29.84F                  
FRENCHVILLE    LGT RAIN  48  41  76 S7        29.81F                  
CARIBOU        LGT RAIN  49  43  80 SW5       29.82F                  
$$

NHZ002-005-008-009-011-012-014-250500-
NEW HAMPSHIRE
  
CITY           SKY/WX    TMP DP  RH WIND       PRES   REMARKS
PORTSMOUTH     PTCLDY    55  48  78 S6        30.00F                  
ROCHESTER      FAIR      52  50  93 S3        29.99F                  
NASHUA         FAIR      59  53  80 VRB3      30.02F                  
MANCHESTER     FAIR      62  51  67 S8        30.00F                  
CONCORD        FAIR      58  50  75 SE6       30.00F                  
LACONIA        FAIR      51  44  77 CALM      30.00F                  
PLYMOUTH       FAIR      46  44  94 CALM      30.01S                  
BERLIN         FAIR      41  39  93 CALM      29.97F                  
WHITEFIELD     FAIR      44  41  89 CALM      29.98F                  
JAFFREY        FAIR      59  45  59 SW5       30.05F                  
LEBANON        FAIR      49  42  77 CALM      30.00S                  
MT WASHINGTON  PTCLDY    43  27  52 W47G55      N/A                   
$$

VTZ005-007-008-250500-
VERMONT
  
CITY           SKY/WX    TMP DP  RH WIND       PRES   REMARKS
ST JOHNSBURY     N/A     49  44  83 MISG      29.96F                  
MONTPELIER     FAIR      50  42  74 CALM      30.02F                  
BURLINGTON     FAIR      60  44  55 SE3       29.94F                  
$$

MAZ007-012-024-CTZ003-RIZ002-NYZ038-NYZ072-250500-
SOUTHERN NEW ENGLAND AND NY
  
CITY           SKY/WX    TMP DP  RH WIND       PRES   REMARKS
BOSTON         FAIR      55  49  80 SW14      30.05F                  
WORCESTER      FAIR      54  48  80 W13       30.06F                  
NANTUCKET      FAIR      51  51 100 S10       30.11F                  
PROVIDENCE     FAIR      51  49  92 S9        30.11S                  
HARTFORD       FAIR      56  52  86 S8        30.07F                  
ALBANY         FAIR      62  47  57 CALM      30.03F                  
NEW YORK CITY  FAIR      72  44  36 SW8       30.08S                  
$$

ANZ081-ANZ082-ANZ150-NHZ014-MEZ023>029-250500-
COASTAL MARINE OBSERVATIONS
  
STATION/POSITION TIME  TEMP    WIND        PRES    WAVE
                       AIR SEA DIR/SP/G            HT/PER
                 (UTC) (F)     (DEG/KT/KT) (MB)    (FT/S)
MOUNT DESERT ROC 0400   48     200/ 23/ 24 1015.9F
MATINICUS ROCK   0300   50     210/ 21/ 22 1016.3F
ISLE OF SHOALS   0300   56     200/ 19/ 20 1016.4F
JEFFREYS LEDGE   0336      54                N/A     4/ 5
$$

.............KEY..............
   WCI - WIND CHILL
   TC  - TEMPERATURE IN CELSIUS
   VSB - VISIBILITY IN MILES
   HX  - HEAT INDEX
   FAIR- INDICATES FEW OR NO CLOUDS BELOW 12,000 FT, WITH NO 
         SIGNIFICANT WEATHER AND/OR OBSTRUCTIONS TO VISIBILITY.